Погода Батамай

Погода Батамай : погода сейчас, прогноз погоды и архив. Всё, что Вы хотите узнать о погоде Батамай!

Поиск расширенной информации на нашем сайте:

Другие новости

Новости СМИ2

Главная страница сайта

Новости сайта

02.10.2013

Напоминаем, что на нашем новом сайте вы можете получить высокодетализированные прогнозы погоды по пунктам России, СНГ и мира (включающие важные для авиации метеовеличины, такие как направление и скорость ветра, видимость, явления погоды, количество и форма облачности, нижняя и верхняя граница облачности), а также ознакомиться с разнообразными материалами по авиационной метеорологии и подборкой полезных ссылок на эту тему.

Сайт Метеоцентр.Азия посвящён разработке технологий оптимизации авиаметеорологического обслуживания, включая проектирование и перспективное создание нескольких автоматизированных авиаметеорологических систем:
- система выпуска высокодетальных прогностических карт явлений погоды для нижнего воздушного пространства по России и ближнему зарубежью;
- система верификации прогнозов TAF (выпускаемых синоптиками официальных АМСГ РФ и ближнего зарубежья) и AUTOTAF (выпускаемых сайтом Метеоцентр.Азия) - выявление ошибок, онлайн-сопоставление с фактической погодой METAR, автоматическое внесение коррективов в прогнозы при резком отклонении фактической погоды от прогноза, подсчёт оправдываемости прогнозов по элементам и в целом;
- система обработки, анализа и отображения авиаметеорологической информации для применения провайдерами метеорологической информации.

Рекомендуем: отделка лоджии внутри

Погода Батамай - сегодня

Время (UTC), дата Ветер
(°,м/с) 
Видим.   Явления Облачность Т
(°С)
Тd
(°С)
f(%) Тe
(°С)
Pmin
(гПа)
dP
(гПа)
Po
(мм)
O2
(г/м3)
Тmin Tmax R s Состояние
почвы
09 25.03.17 100 (В) 20000 м    4/0 средняя 
[Ac trans]
-3.8 -10 62 -3  1019  -0.3  757  310           
12 25.03.17 090 (В) 20000 м    4/0 средняя 
[Ac trans]
-11.6 -12.9 90 -11  1019.5  0.3  757  320    -2.3       
15 25.03.17 010 (С) 20000 м    5/0 средняя, верхняя 
[Ac trans|Ci fib]
-13.3 -14.6 90 -13  1019.3  -0.4  756  322           
18 25.03.17 020 (С) 20000 м  слаб. снег  10/0 средняя, верхняя 
[Ac trans|Cs]
-11.2 -12.5 90 -13  1018.7  -0.4  756  319           
21 25.03.17 230 (ЮЗ) 20000 м  {снег}  10/0 средняя, верхняя 
[Ac trans|Cs]
-11.7 -13.7 85 -14  1018.9  0.2  756  320           
00 26.03.17 040 (СВ) 20000 м  {снег}  10/0 средняя, верхняя 
[Ac trans|Cs]
-8.4 -11.2 80 -10  1019.4  0.5  757  316  -13.9    0.0  24  неравномерный
сухой снег
100% 
03 26.03.17 040 (СВ) 20000 м    5/0 средняя, верхняя 
[Ac trans|Ci fib]
-3.7 -8.5 69 -5  1019.2  757  310           
06 26.03.17 040 (СВ) 20000 м    3/0 средняя 
[Ac trans]
-0.6 -7.4 60 -1  1018.2  -0.8  756  306           
09 26.03.17 080 (В) 20000 м    6/0 средняя, верхняя 
[Ac trans|Ci fib]
-0.2 -7.6 57 -1  1017.8  -0.4  756  306           
12 26.03.17 060 (СВ) 20000 м    4/0 средняя 
[Ac trans]
-4.7 -8.7 74 -4  1017.5  -0.5  755  311    -0.2       
15 26.03.17 050 (СВ) 20000 м    10/0 средняя, верхняя 
[Ac trans|Ci fib]
-4.4 -7.5 79 -6  1016.9  -0.6  755  310           
18 26.03.17 060 (СВ) 20000 м    10/0 средняя, верхняя 
[Ac trans|Ci fib]
-6.7 -7.9 91 -8  1016.2  -0.7  754  312           
21 26.03.17 040 (СВ) 20000 м    1/0 средняя 
[Ac trans]
-8.3 -8.9 95 -10  1015.6  -0.8  754  314           
00 27.03.17 060 (СВ) 20000 м    1/0 средняя 
[Ac trans]
-4.5 -7.2 81 -7  1014.9  -0.4  754  309  -9.2      24  неравномерный
сухой снег
100% 
03 27.03.17 070 (В) 20000 м    1/0 верхняя 
[Ci fib]
+1 -7 55 -1  1013  -1.7  752  303           
06 27.03.17 080 (В) 20000 м    ясно 
+3.2 -6.7 48 +1  1010.8  -2  751  300           
09 27.03.17 060 (СВ) 20000 м    ясно 
+3.3 -7.5 45 +1  1010.1  -0.7  750  299           
12 27.03.17 050 (СВ) 20000 м    1/0 средняя 
[Ac trans]
-1.3 -7.6 62 -3  1010.8  0.5  751  305    +3.6       
15 27.03.17 050 (СВ) 20000 м    1/0 средняя 
[Ac trans]
-3.5 -7.9 72 -5  1010.6  -0.4  750  307           
18 27.03.17 010 (С) 20000 м    5/0 средняя 
[Ac trans]
-6.6 -9.4 80 -6  1011.5  0.9  751  311           
21 27.03.17 340 (С) 20000 м    9/0 средняя 
[Ac trans]
-6 -8.7 81 -6  1012.9  1.4  752  311           
00 28.03.17 250 (З) 20000 м    3/0 средняя 
[Ac trans]
-6.7 -9.5 80 -6  1014.1  1.2  753  312  -7.4      24  неравномерный
мокрый или
старый снег
100% 
03 28.03.17 220 (ЮЗ) 20000 м    4/1 600 м средняя, верхняя 
[Cu hum|Ac trans|Ci fib]
-1.2 -5.9 70 -2  1014.6  0.7  753  306           
06 28.03.17 250 (З) 20000 м    3/3 600 м кучево-дожд. 
[Cb cap]
+0.6 -7.6 54 -2  1016.1  1.4  755  304           
09 28.03.17 260 (З) 20000 м    ясно 
+1.4 -7.7 51 -2  1017.7  1.6  756  304           
Время (UTC), дата Ветер
(°,м/с) 
Видим.   Явления Облачность Т
(°С)
Тd
(°С)
f(%) Тe
(°С)
Pmin
(гПа)
dP
(гПа)
Po
(мм)
O2
(г/м3)
Тmin Tmax R s Состояние
почвы

Для получения пояснительной информации подведите курсор к названию столбца.

ПОГОДА Батамай - архив

Всё, что Вы хотите узнать о погоде Батамай - удобно и подробно!

Выберите нужную дату (начиная с 1 января 2015* года) и нажмите кнопку "Найти".
Будут отображены архивные сводки погоды по пункту Батамай, начиная с указанной даты.


Отображать данные в формате CSV (для использования в таблицах Excel)


Внимание! Наш архив погоды предназначен исключительно для личного некоммерческого использования в познавательных целях. Если Вам необходимы официальные справки о состоянии погоды (для производственных, юридических, коммерческих и т.п. целей), обращайтесь в органы Росгидромета.

*Примечание: данная дата относится к архиву по метеостанциям СССР (Россия, СНГ, Балтия).
Архив по метеостанциям Зарубежной Европы и Азии (кроме Китая) хранится 10 дней, по другим регионам земного шара (Китай, Африка, Америка, Австралия, Океания) - 1 день.

Батамай - район местоположения метеостанции


Название, широта, долгота, высота метеостанции:
Батамай 63.5°ш. 129.5°д. 79 м над ур. моря [Российская Федерация]

Дополнительная информация

В oтличие oт бoльшинства пoгoдных сайтoв мы публикуем пoдрoбную метеoинфoрмацию в детальнoм прoфессиoнальнoм фoрмате.

Характеристики температуры и влажнoсти вoздуха измеряются на высoте 2 м в тени вдали oт зданий и деревьев.
Скoрoсть ветра измеряется на высoте 10 м (на урoвне рoста челoвека скoрoсть ветра ниже в 1.5-2 раза). Если метеoстанция нахoдится в гoрoде или в лесу, тo скoрoсть ветра занижена на 2-4 м/с пo сравнению с oткрытым местoм. Скoрoсть ветра над акватoриями крупных рек и oзёр, а также на вершинах хoлмoв на 2-5 м/с выше, чем в oбычных услoвиях.
Атмoсфернoе давление в разных тoчках местнoсти мoжет значительнo oтличаться oт давления на метеoстанции, в зависимoсти oт услoвий рельефа (при пoдъёме на 10 м давление пoнижается примернo на 1 мм рт.ст.).